カタログに戻る

STARLINK-35873

運用中通信VLEO
NORAD 67860·PAYLOAD·🇺🇸 United States

打ち上げ Feb 20, 2026 から Vandenberg Space Force Base

Loading…

次のパス (今後24時間)

TLE

最新Source: CelesTrak SupGP

元期: Sep 14, 2026, 22:49 UTC

1 67860C 26034L   26257.95118056  .00018153  00000+0  53583-3 0  2570
2 67860  53.1598  43.3552 0001504  94.5298  53.1265 15.34410212    15

AllMySatでSTARLINK-35873をリアルタイム追跡

Download on the App Store